Volver al catálogo

SPACEMOBILE-004

ActivoComunicacionesVLEO
NORAD 61049·PAYLOAD·🇺🇸 United States

Lanzado Sep 12, 2024 desde Cape Canaveral Space Force Station

Loading…

Próximos Pases (próximas 24 horas)

TLE

ActualizadoSource: CelesTrak SupGP

Época: Sep 15, 2026, 05:11 UTC

1 61049C 24163E   26258.21617369 -.00270810  00000+0 -12202-1 0  2589
2 61049  52.9740 255.0028 0009094  58.0644 346.1874 15.20522604    11

Sigue SPACEMOBILE-004 en tiempo real con AllMySat

Download on the App Store